• In Czech Republic
  • List of Countries
  • For 7 days
  • Water Temperature
  • Satellite Maps
  • Weather Map
  • Weather Widgets
  • user-avatar
    Login

    Hourly Weather Tlumach

    Today, 23 June, Saturday

    Time Temperature Precipitation Wind Pressure Humidity
    00:00 +11°C° 0.6 mm 4 mps 738 mmHg 100%
    01:00 +11°C° 0.9 mm 3 mps 738 mmHg 100%
    02:00 +12°C° 1.2 mm 2 mps 738 mmHg 100%
    03:00 +11°C° 1.4 mm 3 mps 737 mmHg 100%
    04:00 +11°C° 0.3 mm 3 mps 737 mmHg 100%
    05:00 +11°C° 0 mm 3 mps 737 mmHg 100%
    06:00 +11°C° 0.3 mm 4 mps 737 mmHg 100%
    07:00 +11°C° 0 mm 3 mps 737 mmHg 98%
    08:00 +12°C° 0 mm 3 mps 738 mmHg 97%
    09:00 +12°C° 1.1 mm 3 mps 737 mmHg 95%
    10:00 +13°C° 2.2 mm 4 mps 738 mmHg 96%
    11:00 +14°C° 1.8 mm 4 mps 737 mmHg 96%
    12:00 +15°C° 0.2 mm 4 mps 737 mmHg 85%
    13:00 +17°C° 0.1 mm 4 mps 737 mmHg 85%
    14:00 +16°C° 0.3 mm 5 mps 737 mmHg 83%
    15:00 +17°C° 1 mm 4 mps 736 mmHg 83%
    16:00 +18°C° 0.1 mm 4 mps 736 mmHg 77%
    17:00 +18°C° 0.4 mm 4 mps 736 mmHg 79%
    18:00 +18°C° 0 mm 3 mps 736 mmHg 81%
    19:00 +17°C° 0 mm 3 mps 736 mmHg 84%
    20:00 +14°C° 0 mm 5 mps 736 mmHg 93%
    21:00 +13°C° 0 mm 3 mps 736 mmHg 94%
    22:00 +13°C° 0 mm 2 mps 737 mmHg 96%
    23:00 +12°C° 0 mm 3 mps 737 mmHg 99%

    Tomorrow, 24 June, Sunday

    Time Temperature Precipitation Wind Pressure Humidity
    00:00 +13°C° 0 mm 2 mps 737 mmHg 98%
    01:00 +12°C° 0 mm 2 mps 737 mmHg 98%
    02:00 +12°C° 0 mm 2 mps 737 mmHg 98%
    03:00 +10°C° 0 mm 2 mps 737 mmHg 98%
    04:00 +10°C° 0 mm 2 mps 737 mmHg 98%
    05:00 +10°C° 0 mm 2 mps 737 mmHg 98%
    06:00 +12°C° 0 mm 2 mps 738 mmHg 97%
    07:00 +13°C° 0 mm 3 mps 738 mmHg 94%
    08:00 +13°C° 0 mm 5 mps 738 mmHg 91%
    09:00 +14°C° 0 mm 5 mps 739 mmHg 91%
    10:00 +15°C° 0 mm 4 mps 739 mmHg 89%
    11:00 +15°C° 0 mm 4 mps 739 mmHg 88%
    12:00 +17°C° 0.1 mm 3 mps 739 mmHg 90%
    13:00 +18°C° 0 mm 4 mps 739 mmHg 84%
    14:00 +18°C° 0 mm 3 mps 739 mmHg 81%
    15:00 +18°C° 0 mm 2 mps 739 mmHg 77%
    16:00 +20°C° 0 mm 1 mps 739 mmHg 77%
    17:00 +18°C° 0 mm 3 mps 739 mmHg 86%
    18:00 +18°C° 0 mm 2 mps 739 mmHg 88%
    19:00 +19°C° 0 mm 1 mps 739 mmHg 89%
    20:00 +18°C° 0 mm 1 mps 739 mmHg 94%
    21:00 +16°C° 0 mm 2 mps 739 mmHg 96%
    22:00 +15°C° 0 mm 2 mps 739 mmHg 98%
    23:00 +15°C° 0 mm 2 mps 739 mmHg 96%

    Day after tomorrow, 25 June, Monday

    Time Temperature Precipitation Wind Pressure Humidity
    00:00 +14°C° 0 mm 1 mps 739 mmHg 94%
    01:00 +14°C° 0 mm 1 mps 739 mmHg 92%
    02:00 +14°C° 0 mm 1 mps 739 mmHg 90%
    03:00 +14°C° 0 mm 1 mps 739 mmHg 89%
    04:00 +13°C° 0 mm 1 mps 739 mmHg 92%
    05:00 +13°C° 0 mm 1 mps 740 mmHg 94%
    06:00 +13°C° 0 mm 1 mps 740 mmHg 97%
    07:00 +14°C° 0 mm 0 mps 740 mmHg 98%
    08:00 +15°C° 0 mm 0 mps 741 mmHg 95%
    09:00 +16°C° 0 mm 0 mps 741 mmHg 94%
    10:00 +17°C° 0 mm 0 mps 741 mmHg 90%
    11:00 +20°C° 0 mm 1 mps 741 mmHg 85%
    12:00 +20°C° 0.1 mm 2 mps 741 mmHg 82%
    13:00 +21°C° 0 mm 2 mps 741 mmHg 80%
    14:00 +21°C° 0 mm 2 mps 740 mmHg 78%
    15:00 +21°C° 0 mm 2 mps 740 mmHg 76%
    16:00 +16°C° 8.1 mm 5 mps 741 mmHg 94%
    17:00 +20°C° 1.7 mm 1 mps 741 mmHg 83%
    18:00 +19°C° 0 mm 2 mps 741 mmHg 83%
    19:00 +18°C° 0 mm 0 mps 741 mmHg 90%
    20:00 +18°C° 0 mm 0 mps 741 mmHg 96%
    21:00 +19°C° 0 mm 1 mps 741 mmHg 96%
    22:00 +17°C° 0 mm 0 mps 742 mmHg 88%
    23:00 +16°C° 0 mm 0 mps 742 mmHg 90%

    26 June, Tuesday

    Time Temperature Precipitation Wind Pressure Humidity
    00:00 +18°C° 0 mm 1 mps 742 mmHg 94%
    01:00 +16°C° 0 mm 1 mps 742 mmHg 99%
    02:00 +15°C° 0 mm 1 mps 742 mmHg 100%
    03:00 +14°C° 0 mm 1 mps 742 mmHg 100%
    04:00 +14°C° 0 mm 1 mps 742 mmHg 100%
    05:00 +14°C° 0 mm 1 mps 742 mmHg 100%
    06:00 +14°C° 0 mm 1 mps 742 mmHg 100%
    07:00 +15°C° 0 mm 1 mps 743 mmHg 100%
    08:00 +16°C° 0 mm 1 mps 743 mmHg 98%
    09:00 +17°C° 0 mm 2 mps 743 mmHg 98%
    10:00 +18°C° 0 mm 3 mps 744 mmHg 95%
    11:00 +19°C° 0 mm 3 mps 743 mmHg 91%
    12:00 +20°C° 0 mm 3 mps 743 mmHg 87%
    13:00 +20°C° 0 mm 3 mps 743 mmHg 81%
    14:00 +21°C° 0 mm 3 mps 743 mmHg 81%

    27 June, Wednesday

    Time Temperature Precipitation Wind Pressure Humidity

    28 June, Thursday

    Time Temperature Precipitation Wind Pressure Humidity
    Show more